sat.trackr.live / text

‹ back to catalog

STARLINK-36719

NORAD 67648 · 2026-022A

PAYLOAD ACTIVE UNKNOWN

§ Identity

Operator
Country
US
Launch date
2026-02-02
Launch site
AFWTR
Launch vehicle
Mass (kg)
RCS (m²)

Purposes: comms

External: N2YO · Heavens-Above · Gunter

§ Orbital elements

Epoch: 2026-09-19T08:02:09.231648Z

Period
93.90 min
Inclination
97.2829°
Eccentricity
0.0003943
Mean motion
15.33542840 rev/d
Perigee alt
462.6 km
Apogee alt
468.0 km
Semi-major
6,843.4 km
B*
1.0473e-3
RAAN
293.8382°
Arg perigee
106.2549°
Mean anomaly
253.9128°
Rev number
3,524

§ Raw data

STARLINK-367191 67648U 26022A   26262.33482907  .00034000  00000+0  10473-2 0  99902 67648  97.2829 293.8382 0003943 106.2549 253.9128 15.33542840 35240

JSON: /api/v1/satellites/67648 · /tle

For live sub-satellite position, see the globe view (requires WebGL).

§ Visibility from observer

Set your observer location to see the next 7 days of passes ≥ 10°. The values pass through the URL so the page stays shareable.

No JS? Fill the form by hand. The geolocation button needs JavaScript.